Theta_e
293 292 292 293 293 294 296 297 299 301 302 303 304 305 306 307 309 309 310 312 313 313 312 311 310 309 308 307 305 303 304 305 305 304 305 305 306 307 308 308 309 310 310 310 311 311 311 312 312 313 313 313 313 311 310 311 311 311 311 312 312 312 312 311 310 309 307 306 306 305 305 305 304 303 303 304 304 302 299 298 298 297 297 297 296
292 292 292 292 292 293 295 296 298 299 299 300 301 302 303 306 307 307 308 309 309 309 309 308 306 305 304 302 302 301 301 302 301 301 301 302 302 303 303 304 305 306 306 306 308 308 308 309 309 309 310 310 310 309 308 309 308 308 307 307 308 308 307 307 306 305 303 301 299 299 302 303 303 303 304 303 301 299 299 298 297 297 297 297 296
293 292 291 291 291 292 293 294 295 296 297 298 300 301 303 304 304 305 306 306 306 306 306 305 304 303 302 301 301 300 299 299 299 299 299 300 300 300 300 300 301 301 301 302 303 303 304 304 304 305 305 306 306 306 306 306 305 305 304 304 304 304 304 304 303 303 301 299 298 298 299 299 301 302 300 300 300 301 301 298 296 297 297 297 297
294 293 291 290 291 291 292 292 293 295 296 297 298 300 301 302 303 304 304 304 304 304 303 303 302 302 301 300 300 299 298 299 299 299 299 299 299 299 299 299 299 299 299 299 300 300 300 301 301 301 301 302 303 303 303 302 302 302 301 301 300 300 301 301 301 301 300 300 299 299 297 296 302 301 296 298 302 302 301 298 298 299 299 297 296
295 294 292 290 290 290 290 291 292 292 293 294 295 297 299 300 301 302 302 302 302 302 302 302 302 301 300 300 300 300 299 299 298 297 297 297 297 297 297 298 298 298 298 298 298 299 298 299 299 299 299 299 300 300 299 299 299 300 300 300 299 298 298 298 299 298 298 298 298 298 298 299 301 298 294 298 300 299 299 299 299 299 297 297 297
293 293 291 290 290 290 290 290 290 291 291 291 293 296 298 299 300 301 301 301 301 301 301 301 301 301 300 300 299 297 295 294 293 293 294 294 294 295 295 296 297 297 297 298 298 298 298 298 298 298 298 297 297 298 297 297 297 298 298 299 299 298 298 297 297 297 297 297 296 296 297 298 297 295 295 297 297 296 297 298 298 298 297 298 297
293 292 290 289 289 289 289 289 290 290 290 291 293 295 297 298 299 300 300 300 300 300 300 301 300 300 299 297 295 293 290 288 288 289 290 291 292 292 293 293 294 295 295 295 295 295 296 296 296 296 296 295 296 296 295 295 295 295 296 297 297 297 298 298 296 297 298 297 296 296 295 295 294 294 295 295 295 296 296 296 296 297 297 297 296
295 294 291 289 289 289 289 289 289 289 290 291 292 294 295 296 297 298 298 298 298 298 299 299 299 298 297 295 293 291 289 287 287 288 288 289 289 289 289 289 290 290 290 290 290 290 291 291 291 292 292 293 293 293 294 294 294 294 295 295 295 296 296 296 295 296 296 296 297 297 296 295 295 294 294 294 294 294 294 295 295 295 295 295 295
294 293 291 289 289 289 288 289 289 289 290 290 291 293 294 295 296 296 296 296 296 297 297 297 297 296 295 294 291 288 287 287 287 287 287 287 287 287 287 287 287 287 287 287 287 287 287 287 287 287 288 288 289 290 290 291 291 292 292 293 294 294 294 295 295 294 294 295 295 296 296 296 296 295 294 293 293 293 293 294 293 293 294 294 294
293 291 290 290 289 289 288 288 289 289 289 290 291 292 293 294 295 295 294 294 295 295 295 295 294 294 293 291 289 287 287 287 287 287 286 287 286 286 286 286 286 286 286 286 286 286 286 286 286 286 286 286 286 286 287 287 287 288 289 289 290 290 291 292 292 293 293 293 293 293 294 294 294 294 294 293 292 292 292 292 292 292 293 293 294
294 291 290 290 289 288 288 288 288 288 289 290 291 292 293 293 294 293 292 292 292 293 293 292 292 292 291 289 288 287 287 287 287 286 286 286 286 286 286 286 286 286 286 286 286 286 286 286 286 285 286 286 286 286 285 285 285 286 286 286 286 286 287 287 288 289 289 290 291 292 292 292 292 292 292 292 292 291 292 292 292 292 292 293 294
295 293 291 289 289 288 288 288 288 288 288 289 290 291 291 291 292 291 289 289 290 290 290 290 289 289 288 288 287 287 287 287 286 286 286 286 286 285 286 285 286 286 285 285 285 285 285 285 285 285 285 285 285 285 285 285 285 285 285 285 285 285 285 285 285 285 286 287 288 289 290 290 291 291 292 292 291 291 291 290 291 292 292 292 293
295 295 293 289 288 288 288 287 287 287 287 287 288 289 289 289 290 289 288 287 288 288 288 288 287 287 287 287 286 286 286 286 286 286 285 286 286 285 286 285 285 285 285 285 285 285 285 285 285 285 285 285 285 285 285 285 285 285 285 285 285 285 285 285 285 285 285 285 285 285 286 286 287 289 290 291 291 291 290 289 290 291 290 291 292
296 296 293 289 289 288 287 287 287 286 286 286 287 288 288 288 288 288 287 286 287 287 287 287 286 286 286 286 286 286 286 286 285 285 285 285 285 285 285 285 285 285 285 285 285 285 285 284 284 284 284 284 284 284 284 284 284 284 284 284 284 284 284 284 284 284 284 284 284 285 285 285 285 286 286 287 289 290 290 289 289 289 289 289 290
296 296 293 289 289 289 287 287 287 286 286 286 287 287 287 287 287 287 286 286 286 286 286 286 286 286 286 286 286 286 286 285 285 285 285 285 285 285 285 285 285 284 284 284 284 284 284 284 284 284 284 284 284 284 284 284 284 284 284 283 283 284 283 283 284 284 284 284 284 284 284 284 284 284 284 285 286 287 288 289 288 288 289 289 289
295 295 293 290 290 289 287 287 287 286 286 286 286 287 287 287 286 286 286 286 286 286 286 286 286 286 286 286 285 285 285 285 285 285 285 285 285 284 284 284 284 284 284 284 284 284 284 284 283 283 283 283 283 284 284 284 284 284 284 284 283 283 283 283 283 283 283 283 283 283 283 283 283 283 284 284 284 285 286 287 288 288 288 289 289
294 294 292 290 290 289 287 287 286 286 286 286 286 286 286 286 286 286 286 286 286 286 286 286 286 286 285 285 285 285 285 285 285 285 284 284 284 284 284 284 284 284 283 283 283 283 283 283 283 283 283 283 283 283 283 283 283 283 283 283 283 283 283 283 283 283 283 283 283 283 282 283 283 283 283 283 283 283 284 284 286 287 287 288 288
293 293 291 289 290 289 287 287 287 286 286 286 286 286 286 286 286 286 286 286 286 286 286 286 286 286 285 285 285 285 285 285 285 284 284 284 284 284 284 283 283 283 283 283 283 283 283 283 283 283 283 283 283 282 282 282 282 282 282 282 282 283 283 283 283 283 283 283 283 283 283 282 282 282 282 282 282 282 282 283 284 285 286 287 287
293 293 291 289 289 289 287 287 287 286 286 286 287 286 286 286 286 286 286 286 286 286 286 286 285 286 285 285 285 285 285 285 285 284 284 285 284 284 284 284 283 283 283 283 283 283 283 283 283 282 282 282 282 282 282 282 282 282 282 282 282 282 283 283 283 282 282 282 282 283 283 282 282 283 282 282 282 281 281 282 282 283 285 286 286
293 294 292 289 289 289 288 287 287 287 287 287 287 287 287 286 286 286 286 286 286 286 286 286 286 286 285 285 285 285 285 285 284 284 284 284 284 284 284 284 283 283 283 283 283 283 283 283 282 282 282 282 282 282 282 282 282 282 282 283 283 283 283 283 283 282 282 281 280 280 280 281 281 282 282 282 282 282 281 281 282 282 283 284 285
293 293 291 289 289 290 288 287 287 287 287 287 287 287 287 286 286 286 286 286 286 286 286 286 286 286 285 285 285 285 285 284 284 284 284 284 284 284 284 283 283 283 283 283 282 282 282 282 282 282 282 282 282 282 282 282 282 282 282 282 282 282 282 282 282 282 282 281 281 280 280 279 279 280 280 281 281 281 281 281 281 282 282 283 284
293 292 290 288 289 290 289 288 288 288 287 287 287 287 287 286 286 286 286 286 286 286 286 286 286 286 286 285 285 285 285 285 284 284 284 284 284 283 283 283 283 282 282 282 282 282 282 281 281 281 281 281 281 281 281 281 281 281 281 281 281 281 280 280 281 281 281 280 280 281 280 280 279 279 279 279 279 280 280 281 281 281 282 282 283
293 291 289 288 289 290 290 289 289 289 288 287 287 286 286 286 286 286 286 286 286 286 286 286 286 286 286 286 286 286 285 285 285 285 284 284 283 283 283 283 282 282 282 282 282 281 281 281 281 281 280 280 280 280 280 280 280 279 280 280 279 279 279 279 279 279 279 279 279 279 279 279 279 279 279 279 279 279 279 280 280 281 281 281 282
294 291 289 289 290 289 290 290 289 289 288 288 287 286 286 286 286 286 286 286 286 286 286 286 286 286 286 285 285 285 285 285 285 285 284 284 283 283 283 282 282 282 282 282 281 281 281 280 280 280 280 279 279 279 279 279 278 278 278 278 278 278 277 277 277 277 277 277 277 278 278 278 278 278 278 278 278 278 279 279 279 280 280 281 281
295 293 290 289 289 289 290 290 290 289 289 288 287 287 287 287 286 286 286 286 286 286 286 286 286 286 285 285 285 285 285 285 285 285 285 285 284 284 283 282 282 282 282 281 281 280 280 280 279 279 279 278 278 278 278 277 277 277 277 276 276 276 277 277 277 277 277 277 277 277 277 277 277 277 277 278 278 278 278 278 279 279 279 280 280
295 294 292 290 289 289 289 290 290 290 289 288 287 287 287 287 287 287 287 286 286 286 286 286 286 285 285 285 285 285 285 285 285 285 285 285 285 284 283 282 282 282 282 281 281 281 280 280 279 279 278 278 278 277 277 277 276 276 276 276 276 276 276 276 276 276 276 276 276 276 276 276 276 277 277 277 277 277 277 278 278 278 278 279 280
294 293 292 291 290 289 289 289 290 290 290 289 288 287 287 287 287 287 287 287 286 286 286 286 286 285 285 285 285 285 285 285 285 285 285 285 285 284 283 282 282 282 282 282 281 281 280 280 279 279 279 278 278 277 276 276 276 276 276 275 275 275 275 275 275 275 275 275 275 275 275 275 275 276 276 276 276 277 277 277 278 278 278 279 279
295 294 293 292 291 288 288 288 289 290 290 290 288 288 288 288 288 287 287 287 286 286 286 286 286 285 285 285 285 285 285 285 285 285 285 285 285 284 283 282 282 282 281 281 281 280 280 280 279 279 278 278 277 277 276 276 275 275 275 275 274 275 274 274 274 274 274 274 274 274 274 274 274 274 275 275 276 276 277 277 278 278 278 279 279
296 294 293 293 291 288 287 288 288 289 289 289 289 288 288 288 288 287 287 287 286 286 286 286 286 286 285 285 284 284 284 284 285 285 285 285 285 284 283 282 281 281 281 280 280 280 279 279 279 278 278 277 277 276 275 275 274 274 274 274 274 274 274 274 274 273 273 273 273 273 273 273 274 274 274 275 275 276 276 277 277 277 278 278 278
296 295 293 291 289 287 287 288 288 288 288 289 289 289 289 288 288 288 287 287 287 287 286 286 286 286 285 285 284 284 284 285 285 285 285 285 285 284 282 282 281 281 280 280 279 279 279 278 278 278 277 277 276 275 274 274 273 273 273 273 273 273 273 273 273 272 272 272 272 272 272 272 273 273 273 273 274 274 275 275 276 276 277 277 278
296 294 292 290 288 287 287 287 287 288 288 288 289 289 289 289 288 288 288 287 287 287 287 287 286 286 285 284 284 284 284 285 285 285 285 284 284 283 282 282 281 280 280 280 279 279 278 278 277 277 277 276 275 275 274 273 273 273 272 273 273 273 272 272 272 272 272 272 272 272 271 271 271 271 271 271 272 272 272 273 273 274 275 276 277
297 294 292 291 288 286 286 287 287 287 288 288 289 289 289 289 289 289 289 288 287 287 287 287 286 286 285 284 284 284 284 285 285 285 284 284 284 283 282 281 281 280 280 279 279 278 278 277 277 277 276 276 275 274 273 273 273 272 272 273 273 272 272 272 272 271 271 271 271 271 270 270 269 269 270 270 270 270 270 271 272 272 273 274 275
297 294 292 290 288 286 286 287 287 287 288 289 289 289 289 290 290 289 289 288 288 287 287 287 286 286 285 284 284 284 284 284 284 284 284 284 283 282 281 281 280 280 279 279 278 278 277 277 277 276 276 275 275 274 273 273 272 271 271 272 272 272 272 271 271 271 270 270 270 269 269 269 269 269 269 269 269 269 270 270 271 271 272 273 273
295 293 290 286 286 286 286 287 288 288 289 289 289 289 290 290 289 289 288 288 287 287 287 286 286 285 284 284 284 284 284 284 284 284 283 283 282 281 280 280 280 279 279 278 278 278 277 277 276 276 275 275 274 273 273 272 271 270 271 272 272 271 271 270 270 269 269 269 269 269 268 268 268 268 268 269 269 269 270 270 271 271 271 272 272
298 296 289 285 285 287 287 287 288 289 289 289 289 289 289 289 288 288 287 287 287 286 286 286 285 284 284 284 284 283 283 283 283 283 282 281 280 280 280 279 279 278 278 277 277 277 276 276 275 275 275 274 273 272 272 272 271 270 270 271 271 269 269 269 269 269 269 269 268 268 268 268 268 268 268 269 269 270 270 271 271 271 271 272 272
297 295 290 288 289 290 290 290 291 290 290 290 290 289 289 288 288 287 286 286 286 286 286 285 284 284 283 283 283 283 283 283 282 281 280 280 279 279 279 278 278 277 276 276 276 275 275 275 274 274 274 273 273 272 272 271 270 269 269 270 269 268 268 268 268 268 268 268 268 268 268 268 268 268 269 269 270 271 271 271 271 271 272 272 272
291 292 292 292 292 292 291 292 291 291 291 291 290 290 289 288 287 286 286 286 285 285 285 284 284 283 283 282 282 282 282 282 280 279 279 279 279 278 278 277 276 276 275 275 275 275 274 274 273 273 272 272 272 272 271 271 269 269 269 269 268 268 268 268 268 268 268 268 268 268 268 268 268 268 269 270 271 272 272 272 272 272 273 273 273
291 291 291 290 290 290 290 290 290 290 290 290 290 289 288 287 287 286 285 285 285 285 284 283 283 282 282 282 282 282 281 280 279 279 278 278 278 278 277 276 275 275 275 274 274 274 274 273 273 272 271 271 272 271 271 270 269 269 268 268 268 268 268 268 268 268 269 269 268 268 269 269 269 269 270 271 272 273 273 273 273 274 274 274 273
290 290 289 289 290 290 289 289 289 289 289 289 289 289 288 287 286 286 285 284 284 284 283 282 282 281 282 282 281 280 279 278 278 278 278 278 277 277 276 275 274 274 274 274 274 274 274 273 272 272 271 270 271 271 271 270 270 268 268 269 269 268 268 269 269 269 269 269 269 269 269 270 270 271 271 272 273 274 274 274 274 274 274 274 274
289 289 289 289 289 289 289 289 289 289 289 289 289 288 287 287 286 285 284 284 284 283 282 282 281 281 281 281 280 279 278 278 278 278 277 277 276 276 275 274 274 273 273 273 273 272 273 273 272 272 271 270 270 271 270 270 269 268 268 269 269 269 269 269 269 269 269 269 270 270 270 270 271 272 272 273 273 274 274 274 274 274 274 274 274
289 289 289 288 289 289 289 289 289 289 289 288 288 287 287 286 285 284 284 284 283 282 281 281 281 281 280 279 278 278 278 278 277 277 276 276 275 275 274 273 273 273 272 272 272 271 272 272 272 271 270 269 269 270 270 269 268 268 268 269 269 269 269 269 270 270 271 271 271 271 271 271 271 272 273 273 274 274 275 275 274 274 275 275 275
288 288 288 288 288 288 288 289 289 289 288 288 287 287 286 285 285 284 285 284 282 281 281 280 280 279 278 278 277 277 277 277 277 276 276 275 275 274 273 272 272 272 271 271 271 271 271 271 271 270 269 269 268 268 268 268 268 267 268 269 269 270 270 271 271 272 271 271 271 271 271 271 272 272 273 273 274 274 275 275 275 275 275 275 276
287 287 288 287 287 288 288 289 288 288 288 287 286 286 285 285 284 284 283 282 281 280 280 279 279 278 277 277 277 277 277 276 276 275 275 274 274 273 272 271 271 271 270 270 270 269 269 269 269 269 268 267 267 267 267 267 267 267 268 269 270 270 271 271 272 272 272 272 272 271 271 271 272 273 273 274 274 275 275 275 275 275 275 276 276
287 287 288 287 287 287 288 288 287 287 286 286 285 285 284 284 284 283 281 280 280 279 279 278 278 277 277 277 276 276 276 275 274 274 274 273 272 272 271 271 270 270 269 269 268 267 266 265 266 267 267 266 266 266 266 267 267 267 268 269 270 271 271 271 272 272 272 272 272 272 272 273 273 274 274 274 275 275 275 275 275 275 275 276 275
287 287 287 286 286 287 286 286 286 285 285 284 284 284 283 283 282 281 280 279 279 278 278 277 277 277 276 276 275 275 274 274 273 273 272 272 271 271 270 270 269 269 268 267 266 265 264 263 263 264 265 265 265 266 266 267 267 268 269 269 270 270 271 271 272 272 272 272 273 273 273 274 274 274 274 274 274 274 274 275 275 275 275 275 275
286 286 286 286 286 285 284 284 284 284 283 283 283 282 282 282 281 280 279 278 278 277 277 276 276 276 275 275 274 274 273 273 272 271 271 270 270 270 269 269 268 268 267 265 264 263 262 262 262 263 264 265 265 266 267 267 268 268 268 269 270 270 271 271 272 272 272 272 273 273 273 274 274 274 274 274 274 274 274 274 274 274 274 273 273
286 287 286 284 284 283 282 283 283 283 283 282 282 281 281 280 279 278 278 277 276 276 276 275 275 274 274 273 273 273 272 271 271 270 270 270 269 269 268 267 267 267 265 264 263 262 262 262 262 263 264 266 266 267 268 268 268 269 269 270 271 271 272 272 272 272 272 272 273 273 273 273 273 272 273 273 273 273 273 273 272 272 272 272 271
286 286 284 283 282 282 282 282 282 283 282 282 281 280 279 278 278 277 276 276 275 275 275 274 274 273 273 273 272 271 271 270 270 269 269 269 269 268 268 267 267 266 264 263 263 262 262 263 263 264 265 267 267 268 268 269 269 270 270 271 272 272 272 272 272 272 273 273 272 272 271 271 271 271 271 271 271 271 270 270 270 270 270 270 270
286 284 283 283 283 282 282 282 282 283 282 281 280 279 278 277 276 276 275 275 275 274 273 273 273 273 272 271 270 270 269 269 269 269 269 268 268 268 267 267 267 266 265 264 264 264 264 265 266 266 267 268 268 269 269 270 270 271 271 271 272 272 272 272 273 273 273 272 270 269 269 269 269 269 268 268 268 268 268 269 269 269 269 270 270
285 284 283 283 283 283 282 282 282 282 281 280 279 277 276 276 275 275 275 274 273 273 272 272 272 272 271 270 269 268 268 268 268 268 268 268 268 267 267 266 265 265 265 264 265 266 266 267 268 268 269 269 269 269 269 270 270 270 271 271 272 272 272 272 272 271 270 269 268 267 267 267 266 266 266 266 267 267 268 268 268 268 268 269 269
284 283 282 282 281 281 280 280 281 280 279 278 277 276 275 275 274 274 274 273 272 271 271 272 272 271 270 268 268 267 267 267 267 267 267 266 266 267 268 267 266 265 264 265 266 267 267 268 268 269 269 269 268 269 269 269 270 270 271 271 271 271 271 270 269 269 267 266 265 265 264 264 264 264 265 265 266 266 267 267 267 267 267 268 269
Wind_Speed
7 12 14 15 15 16 17 18 19 21 22 22 23 23 24 24 24 24 23 21 20 20 20 21 21 23 24 25 26 26 24 23 23 22 21 20 18 17 16 15 14 13 13 13 13 14 14 14 14 15 14 13 12 11 11 10 9 9 8 7 8 8 8 9 9 11 11 11 13 15 17 17 16 15 15 16 18 18 19 22 23 25 26 27 27
7 11 14 15 15 17 18 19 20 21 22 22 23 24 24 25 26 26 24 22 22 21 21 22 23 23 25 26 26 26 25 25 25 25 23 21 20 19 18 17 15 14 14 13 13 13 13 13 14 14 13 12 12 11 11 10 10 10 10 10 8 7 8 8 8 8 6 7 9 11 14 13 11 12 13 12 12 13 16 18 20 22 23 24 26
5 8 12 13 14 16 18 20 21 20 21 22 23 23 24 25 26 26 25 24 24 23 22 23 24 23 24 25 25 27 27 26 26 25 24 23 23 22 21 20 19 18 17 16 15 16 16 16 16 15 14 14 12 12 12 11 11 10 10 10 9 9 8 7 9 8 6 8 8 6 5 6 8 8 8 11 15 17 16 13 14 18 20 21 23
4 6 9 10 12 15 17 18 19 20 21 21 22 23 24 25 25 25 24 24 24 23 24 24 24 24 24 25 25 27 27 25 24 24 23 23 24 23 23 22 21 20 20 19 19 19 18 18 17 17 17 16 15 15 15 15 15 13 12 11 10 10 9 8 9 10 9 8 5 3 2 3 4 4 10 19 20 15 12 13 18 22 20 19 19
4 4 6 7 10 13 15 16 18 20 20 20 21 22 23 24 24 23 23 23 22 21 21 21 21 22 23 23 23 24 25 24 25 25 25 24 25 24 23 22 22 22 21 21 21 20 20 19 18 17 17 17 16 17 17 17 16 16 15 14 12 12 11 10 9 11 11 8 5 4 3 2 2 6 13 15 13 12 16 19 20 18 18 19 22
3 4 4 6 8 11 14 15 17 19 19 19 20 22 23 23 23 23 23 22 21 20 19 18 19 20 20 21 22 25 26 26 26 26 27 27 27 26 24 23 23 22 22 22 21 21 20 20 19 18 18 18 17 16 17 17 17 17 16 15 15 13 12 12 13 13 11 9 9 7 6 6 6 9 9 6 12 17 16 16 16 18 23 26 27
3 4 5 6 7 10 13 15 16 17 17 19 21 22 23 23 24 23 24 24 23 22 20 20 22 22 24 26 27 28 28 26 25 27 28 29 29 28 28 27 26 25 25 24 24 23 22 22 22 21 21 21 19 18 19 18 17 17 16 15 15 15 14 15 15 15 12 10 12 10 9 10 10 10 5 4 10 12 11 15 19 21 23 25 26
2 3 4 5 7 10 12 13 15 15 16 19 21 23 24 24 25 25 25 25 24 24 23 23 24 26 27 29 30 30 29 28 27 28 28 28 29 30 30 30 29 29 28 28 27 26 26 26 25 26 26 25 25 24 23 21 19 18 17 16 15 15 16 15 15 16 14 13 13 12 12 12 12 11 9 7 5 6 12 17 18 19 21 22 25
1 1 3 4 7 9 10 12 13 15 17 20 22 23 24 25 25 26 26 26 26 25 25 25 25 26 28 30 31 30 28 27 26 27 27 27 28 29 29 29 29 28 28 28 28 27 27 27 27 27 28 27 27 26 25 23 23 22 20 19 18 17 16 15 15 15 15 14 14 14 13 14 14 12 9 9 6 5 8 11 17 24 24 24 24
1 1 1 3 5 7 8 11 13 15 17 19 22 23 24 24 25 26 27 26 26 24 25 26 26 26 27 29 29 28 26 25 25 26 26 26 27 28 27 27 27 27 26 26 26 26 26 26 26 26 26 26 26 25 25 24 24 23 22 21 20 20 19 18 17 16 15 14 14 14 13 13 12 8 8 12 9 6 6 8 17 21 20 24 25
2 1 2 3 4 6 8 10 12 14 16 19 21 22 22 23 23 25 26 25 25 24 24 25 25 25 26 26 26 25 24 23 24 25 24 24 26 26 25 25 25 25 24 24 24 23 23 23 23 23 23 23 23 23 23 22 21 20 20 20 20 20 19 19 18 17 17 16 15 15 14 12 9 6 8 12 9 7 7 7 14 20 21 27 30
3 2 3 4 5 6 7 10 12 13 16 18 20 21 22 22 23 25 25 24 23 23 24 24 24 24 24 24 24 23 22 23 24 24 23 23 23 22 21 22 22 22 22 22 22 21 21 21 21 21 21 21 21 20 19 19 18 17 17 17 17 17 17 17 17 17 17 17 16 15 15 14 12 10 10 12 11 11 11 8 12 18 18 22 31
4 4 4 5 6 7 7 9 11 13 15 17 19 20 22 22 22 24 25 23 23 22 23 24 24 24 23 23 23 22 21 22 22 22 21 20 20 19 20 20 20 20 20 21 20 19 19 19 19 19 19 19 18 18 17 17 17 16 16 16 16 16 16 15 15 15 15 15 14 14 13 14 14 13 12 13 13 14 13 10 13 16 14 19 28
5 5 5 6 8 8 9 10 11 13 15 17 19 20 21 21 21 24 24 22 21 22 22 23 23 22 21 21 21 20 20 20 20 20 19 18 18 18 19 18 18 18 18 18 17 17 17 17 17 17 17 17 17 17 17 17 17 17 17 16 16 15 15 15 14 14 14 13 13 13 13 13 14 14 14 14 14 14 14 13 13 14 15 19 22
6 5 5 7 10 10 10 11 11 13 15 17 19 19 20 21 21 23 23 21 21 21 21 22 22 21 19 19 19 18 19 19 19 18 17 16 16 16 16 16 16 16 15 15 14 14 14 15 15 15 15 16 16 16 16 17 17 18 18 18 17 17 17 16 16 16 15 15 15 15 15 15 15 15 15 16 16 15 16 16 14 10 10 12 12
6 5 5 8 11 11 12 12 13 13 15 17 18 19 20 21 21 22 22 20 19 19 20 20 20 19 18 17 17 17 17 17 17 16 15 14 14 14 14 14 14 13 13 13 13 13 13 14 15 15 15 16 16 16 17 17 17 18 18 19 19 19 20 19 19 19 18 18 18 18 18 19 18 17 17 17 17 17 17 18 16 11 8 7 7
7 6 6 9 12 12 13 14 14 15 16 17 18 18 19 20 20 21 21 20 19 18 18 18 17 17 16 16 15 15 14 14 14 14 13 13 12 12 12 12 12 12 13 13 14 15 15 16 17 17 18 18 19 19 19 19 20 20 20 20 20 20 20 21 21 21 21 21 21 21 21 21 21 20 20 19 19 19 19 19 18 17 13 8 5
6 6 7 10 13 13 14 15 15 16 16 17 17 17 17 18 18 19 19 19 18 17 17 16 15 15 15 14 13 13 13 13 13 12 11 11 11 11 11 11 12 13 13 14 15 16 17 18 19 20 20 21 22 22 23 23 23 23 23 23 23 23 23 22 22 22 22 23 23 23 23 24 23 23 23 23 22 21 21 21 21 20 18 14 9
6 6 7 10 13 15 16 16 15 16 16 16 17 16 17 16 16 17 17 17 16 15 15 14 13 13 13 12 12 12 11 11 10 9 8 8 8 9 9 9 10 11 12 13 14 16 17 18 19 20 21 22 22 23 24 24 24 25 25 26 26 26 27 27 26 26 25 24 24 25 25 25 25 25 26 26 25 24 23 23 22 22 21 21 19
8 8 7 9 14 17 18 18 17 17 17 16 17 16 16 16 15 15 15 15 14 13 12 12 12 12 11 11 10 10 9 9 8 7 6 6 6 6 7 8 8 10 12 13 14 16 17 18 20 21 21 22 23 23 24 24 24 24 25 25 25 26 26 27 28 28 28 28 27 28 27 25 25 26 27 26 27 26 25 25 24 24 24 24 25
9 7 6 9 13 17 19 19 17 16 16 16 16 16 15 15 14 14 13 13 12 11 11 11 11 10 9 10 9 9 9 8 7 6 5 6 6 6 7 8 10 11 13 15 17 18 20 21 21 22 23 23 24 24 25 25 25 26 26 25 26 26 26 27 27 28 28 28 29 30 30 28 26 27 27 26 25 26 26 27 26 26 26 25 25
7 5 6 10 13 16 19 19 18 18 17 17 16 16 15 15 14 13 12 12 11 10 10 10 10 9 9 9 9 8 8 7 6 5 5 5 6 7 8 10 11 13 15 17 19 20 21 22 23 23 24 24 25 25 25 26 26 27 27 27 26 27 27 28 29 29 29 29 30 31 31 30 29 30 30 27 26 25 25 27 28 27 28 28 25
5 5 8 11 13 16 18 20 20 20 20 19 17 17 16 15 14 13 12 11 11 10 11 10 9 9 7 7 6 6 5 5 6 6 6 6 7 8 9 11 12 14 16 18 20 22 23 23 24 24 24 24 25 25 25 25 26 26 27 27 27 27 27 28 29 30 30 29 30 31 32 31 30 32 33 31 28 27 25 26 28 27 28 30 28
5 6 9 11 13 15 18 20 21 21 21 20 19 18 17 15 14 13 13 12 12 12 12 11 9 8 7 6 4 3 3 3 4 5 6 8 9 10 11 13 14 16 18 20 22 23 24 24 25 25 25 24 24 25 25 25 24 24 25 26 27 27 27 27 28 28 29 29 29 30 31 30 29 31 33 32 29 29 28 27 29 29 28 29 30
7 7 7 10 12 15 18 20 20 21 21 21 21 20 19 17 16 15 14 14 14 14 13 12 10 9 8 6 5 3 1 1 2 4 7 9 11 13 14 15 17 19 21 23 24 25 25 26 26 25 25 24 24 24 25 24 24 24 24 25 26 26 26 27 27 27 27 27 28 29 31 30 29 30 32 31 30 29 30 29 30 31 29 29 30
9 7 6 8 11 15 18 19 20 21 22 23 23 22 21 20 18 17 16 16 16 16 15 14 13 11 10 8 7 6 5 4 4 6 8 10 13 15 16 17 19 20 22 24 25 26 26 27 27 26 26 25 25 25 25 24 25 25 26 26 26 26 26 27 27 27 27 27 27 29 30 29 28 30 31 31 30 30 31 31 32 32 31 29 30
7 6 6 7 9 14 17 18 20 22 24 24 25 24 23 22 21 20 19 19 18 18 17 16 15 14 13 12 10 9 7 6 6 7 9 11 13 16 17 18 19 21 22 24 26 27 27 27 27 27 26 26 26 26 25 25 26 26 27 27 27 28 28 28 28 29 29 29 29 29 30 29 28 28 30 31 30 30 30 31 31 31 31 30 30
6 6 8 9 9 12 15 18 21 22 24 25 26 26 25 24 23 22 22 21 21 21 20 19 18 17 17 15 13 11 10 8 7 8 9 12 14 17 18 19 20 22 23 25 26 27 28 28 28 27 27 27 27 26 25 26 26 27 27 28 28 29 30 31 32 32 31 30 30 30 29 28 27 28 28 29 29 29 30 31 31 30 30 31 31
7 8 9 10 9 10 14 18 20 21 23 24 25 26 26 26 26 24 24 24 23 22 22 21 21 20 20 18 16 14 12 10 9 9 11 14 16 18 19 21 22 23 25 26 26 27 28 28 28 28 28 27 27 26 25 25 25 26 27 28 28 28 29 31 32 33 32 30 29 29 27 25 24 24 25 25 26 26 28 30 32 30 30 31 32
8 9 9 9 9 11 15 18 20 23 24 25 26 27 28 29 28 27 26 25 25 24 23 24 23 23 22 20 18 15 13 11 10 11 13 15 17 19 21 22 24 25 26 27 28 28 29 29 29 29 29 28 27 26 25 24 24 24 25 26 27 27 27 27 28 30 31 29 26 25 24 22 21 22 23 24 24 25 25 27 30 30 30 30 31
8 8 8 7 9 11 15 17 20 24 25 25 27 28 29 30 29 29 28 27 26 26 26 26 25 24 23 22 19 16 14 12 11 12 14 16 18 20 22 24 25 26 27 28 29 29 29 29 30 30 30 29 28 27 26 26 24 22 22 23 24 24 24 22 22 25 27 26 23 22 22 22 24 25 25 24 24 25 26 27 28 29 29 29 30
8 8 7 7 8 10 14 17 20 23 24 26 27 27 28 30 31 31 30 29 29 29 29 29 27 25 24 22 19 17 14 12 12 13 14 16 19 21 22 24 25 27 28 29 29 30 30 30 30 30 30 30 30 29 27 27 25 22 20 20 20 21 22 20 20 21 23 23 23 22 21 22 24 24 24 24 25 25 25 25 26 27 26 27 28
7 7 7 8 9 12 16 19 20 22 24 26 27 27 28 30 31 31 30 30 30 30 30 30 28 26 24 22 19 16 14 13 13 14 15 17 20 21 22 24 26 27 28 29 29 30 30 30 30 31 31 31 31 30 28 26 25 23 20 20 20 20 21 21 21 21 22 21 22 22 22 22 22 22 22 23 24 24 24 24 24 24 24 24 24
6 6 7 8 11 13 16 18 19 21 22 23 25 27 28 29 29 29 29 29 29 29 28 27 26 26 24 21 19 16 15 14 14 15 17 18 20 21 22 24 25 27 28 29 29 30 30 30 30 30 31 32 31 30 28 26 24 22 20 20 20 21 21 22 21 21 21 20 19 21 23 23 23 22 22 22 23 24 25 25 25 25 25 24 24
5 6 7 10 12 12 13 14 15 17 18 19 22 24 26 27 27 27 27 27 27 26 26 25 25 25 23 21 18 16 15 14 14 16 17 18 19 21 22 24 25 26 27 28 28 29 29 29 30 30 31 32 31 29 27 26 24 22 21 20 21 21 21 22 22 20 19 19 19 21 23 25 25 24 23 24 26 27 28 29 29 28 28 27 27
7 8 9 10 11 11 10 11 11 12 15 17 19 21 24 26 26 25 25 24 24 24 24 25 25 24 22 20 17 16 14 14 15 17 18 18 19 21 22 24 25 25 26 27 27 28 29 29 29 30 31 32 32 29 27 26 24 22 21 21 21 21 21 22 22 21 20 19 18 20 23 24 25 25 26 27 28 28 30 32 32 32 32 32 30
10 10 9 9 9 8 8 9 9 9 11 12 14 17 20 22 23 22 22 22 22 23 24 25 25 23 21 19 16 15 15 15 16 17 18 19 20 21 22 23 25 26 26 27 28 28 29 29 30 30 30 32 32 29 26 26 24 22 22 22 22 23 23 23 23 23 22 20 18 20 23 26 28 28 28 29 29 29 31 33 34 35 35 33 33
12 11 11 10 10 10 9 9 9 8 8 9 10 13 15 17 19 20 20 20 21 23 24 24 24 21 19 17 15 15 15 15 16 17 18 19 20 21 22 23 24 26 27 27 28 30 30 30 30 30 30 31 32 29 26 25 24 21 20 22 24 26 27 27 26 26 25 22 21 23 25 28 31 31 31 32 31 31 34 35 34 34 34 33 34
13 14 14 13 12 12 11 11 11 11 11 11 12 12 13 15 17 17 18 20 22 23 24 23 21 19 17 15 15 14 15 15 17 18 19 20 21 22 22 23 24 25 27 28 28 30 31 31 30 30 29 29 31 30 26 25 24 21 20 22 25 27 29 29 27 28 28 27 28 30 30 30 32 33 34 35 33 32 34 35 34 34 33 33 35
15 16 15 14 14 14 14 15 14 14 14 14 14 14 14 16 17 17 19 21 23 23 22 21 19 17 16 15 14 14 15 16 17 19 19 20 21 22 23 23 24 25 26 28 28 29 31 32 31 30 30 28 29 29 27 25 24 21 20 22 25 27 29 30 30 31 32 33 33 34 33 32 33 34 35 35 34 33 34 36 36 35 34 36 39
17 17 15 14 15 17 18 18 17 15 15 16 15 15 16 17 18 19 22 23 22 22 21 19 18 16 15 14 14 14 16 17 17 19 20 20 20 21 23 23 24 25 26 27 28 29 31 33 32 30 30 28 27 27 27 26 24 23 22 22 24 27 28 31 33 32 31 32 32 32 34 33 33 34 35 35 35 36 36 37 38 37 37 39 41
16 15 15 16 17 18 20 19 18 17 17 17 16 17 18 19 20 22 23 22 22 21 20 19 17 15 14 13 14 15 16 17 17 18 20 21 20 21 21 22 23 25 26 27 28 28 30 33 32 31 30 28 26 25 26 27 26 24 23 22 24 26 27 30 33 34 33 33 33 33 34 33 33 35 36 36 38 40 39 39 40 40 40 40 39
16 16 17 18 19 20 22 21 20 20 19 18 18 19 19 20 22 23 22 21 21 21 19 17 15 14 14 14 15 16 16 16 17 18 20 21 21 20 21 21 22 24 26 27 28 28 29 31 33 32 30 28 27 25 26 27 27 25 23 23 24 26 27 29 33 36 36 36 36 36 36 36 36 37 38 39 41 42 40 38 38 39 39 38 37
19 20 20 19 20 22 23 23 22 21 20 20 21 20 21 22 23 22 21 21 21 19 17 16 15 14 14 15 16 16 16 16 17 18 19 20 20 20 21 21 21 22 25 27 28 27 27 29 32 33 31 29 27 27 27 28 27 25 24 25 26 27 28 29 32 35 36 37 37 37 38 38 38 40 40 40 41 40 37 36 36 37 37 36 35
20 21 20 21 23 24 23 22 22 21 21 22 22 22 22 23 22 21 21 21 19 18 16 15 14 14 15 15 16 15 15 16 16 17 19 19 19 20 21 21 21 22 24 26 27 27 26 27 29 31 32 30 27 26 28 29 27 25 25 27 27 27 28 29 31 34 36 35 35 37 38 38 39 40 40 39 38 37 35 35 35 36 35 34 33
20 20 20 22 23 22 21 22 22 22 22 22 22 22 23 23 21 21 21 20 18 17 16 15 14 15 15 15 16 15 15 16 16 16 17 18 19 20 21 22 21 22 23 25 26 26 26 26 27 28 29 29 27 27 29 30 28 28 29 29 29 29 29 29 31 33 34 35 36 37 37 37 36 36 35 35 35 35 34 34 34 35 34 34 34
21 22 21 20 20 21 22 23 24 24 24 23 23 23 22 21 20 20 20 18 17 16 15 15 15 14 14 15 16 16 15 15 15 15 16 17 18 19 20 21 22 22 23 24 24 25 25 25 26 26 27 28 29 29 29 29 29 30 31 30 30 30 30 30 31 32 34 35 35 33 33 34 35 34 33 32 32 31 31 31 32 33 33 33 34
22 21 19 19 21 24 25 25 26 26 25 24 23 23 22 21 20 20 19 17 16 16 15 15 15 14 15 16 16 16 16 15 15 15 16 17 17 18 20 21 21 21 23 24 24 25 24 24 25 28 30 32 31 29 27 28 29 30 31 31 31 31 31 31 31 33 33 33 32 31 32 34 34 32 30 28 26 26 27 28 30 32 32 33 33
21 19 19 20 23 25 27 28 28 27 25 25 24 23 22 22 21 20 18 17 16 16 15 15 15 15 16 16 16 15 15 16 16 17 17 17 17 17 19 22 21 20 21 23 25 26 26 26 27 28 29 31 30 28 27 28 29 29 30 31 31 31 32 32 32 32 32 31 30 29 29 29 27 26 27 28 28 28 28 28 28 28 29 30 32
20 18 19 22 25 26 27 28 27 26 25 25 25 24 23 22 21 20 18 17 16 16 15 15 16 16 16 16 15 15 15 16 17 17 18 19 18 17 17 20 22 21 19 20 23 26 27 27 28 29 27 26 28 29 28 27 27 28 28 28 29 30 31 31 31 30 29 27 26 24 23 23 23 23 24 24 25 26 27 28 28 29 30 31 32
19 18 20 23 24 25 26 27 27 26 25 25 25 25 24 23 21 19 18 17 16 16 16 16 17 16 16 15 15 15 15 15 16 17 18 20 21 20 17 16 18 18 18 17 20 23 24 24 24 26 25 23 24 25 26 26 26 27 27 27 27 27 27 28 28 26 23 22 21 21 21 22 22 22 21 21 22 24 25 27 29 31 33 32 31
Wind_Direction
26 44 50 52 58 65 70 74 76 77 77 77 79 81 82 86 90 90 91 98 101 98 97 94 91 90 88 86 84 81 81 81 77 74 71 68 66 63 59 56 52 52 53 52 54 55 55 53 50 49 47 44 42 40 33 25 16 5 352 335 319 307 300 298 302 309 311 312 311 310 311 310 309 310 309 310 308 305 301 298 296 292 289 288 286
26 41 45 49 56 65 70 74 77 76 74 76 79 81 83 86 88 88 89 92 92 92 93 92 91 91 90 88 86 83 80 79 77 74 73 72 69 66 63 59 56 56 55 53 53 53 51 50 48 48 50 48 50 49 42 38 34 28 23 13 1 345 332 326 328 329 327 325 321 316 318 319 316 314 313 314 315 314 311 307 301 296 295 295 291
15 29 35 42 52 63 70 72 75 77 77 80 82 85 87 88 89 90 91 92 92 93 93 93 94 94 93 91 89 85 81 79 79 76 74 72 69 66 64 62 61 61 59 58 58 57 56 56 55 55 55 54 53 50 44 41 36 34 33 27 20 11 359 353 354 355 340 327 329 321 326 337 325 319 322 322 320 317 313 313 311 309 311 308 299
11 19 24 36 49 60 67 70 75 80 80 81 84 87 89 90 92 94 96 95 96 96 96 98 99 97 96 94 92 89 86 84 81 76 72 70 68 65 63 62 62 62 62 61 61 61 60 60 58 56 55 52 50 49 46 42 38 35 34 34 30 21 13 7 6 7 356 341 336 318 325 338 307 327 334 320 317 315 308 312 315 313 314 313 308
8 13 7 24 45 57 65 70 75 77 77 78 82 86 90 92 95 97 98 98 99 99 101 104 104 104 103 100 97 92 84 78 75 71 69 69 68 67 66 65 65 65 64 63 62 61 60 60 58 56 55 52 49 49 47 43 39 35 32 33 34 29 21 15 12 11 6 354 335 310 316 326 271 335 336 318 313 312 304 307 311 310 312 312 311
358 1 354 16 43 59 66 70 72 74 75 79 85 90 93 96 98 99 99 99 101 103 107 111 110 109 107 99 91 84 76 69 69 71 71 72 72 72 70 69 67 66 65 63 61 59 58 57 55 54 53 51 49 48 47 42 38 36 32 30 31 30 23 24 21 12 12 12 360 335 311 304 298 324 335 312 310 308 300 302 304 303 306 306 307
358 359 2 22 42 56 62 65 70 74 78 85 91 94 97 99 100 100 99 99 101 102 105 106 104 101 96 90 86 83 80 76 76 78 77 78 77 75 73 71 69 68 66 64 62 60 59 58 57 56 55 54 52 50 49 46 43 40 35 31 30 26 21 26 23 14 14 14 5 355 339 328 317 315 308 298 316 309 297 301 303 304 306 305 305
348 352 0 24 42 55 62 69 76 82 87 92 93 95 97 98 98 99 98 98 99 99 97 95 94 93 92 91 88 87 87 85 84 84 82 82 79 76 74 72 70 69 68 67 65 64 63 63 62 62 60 58 56 54 52 49 46 43 38 35 31 27 25 26 24 20 17 7 357 353 350 347 340 327 305 292 297 301 308 310 310 313 310 305 305
288 312 353 29 50 63 73 82 89 94 95 95 95 96 97 97 98 97 96 97 97 96 95 93 94 95 94 94 92 91 91 90 88 86 83 81 79 77 75 73 72 70 68 67 66 64 64 63 63 63 62 61 59 58 55 52 49 46 42 39 36 34 32 26 22 21 20 12 4 358 352 347 344 342 332 318 298 285 306 315 318 319 314 308 306
233 237 38 55 71 81 89 96 98 99 100 101 101 101 101 100 99 97 95 97 98 97 97 97 97 97 96 97 97 96 94 92 89 84 80 78 76 74 73 72 71 69 68 66 65 63 62 61 61 61 62 61 60 59 57 54 52 49 47 45 44 42 38 32 28 23 18 13 8 5 3 358 349 344 341 334 322 290 284 300 313 318 316 311 310
194 166 101 97 100 104 106 104 103 105 107 108 107 107 105 104 103 100 99 100 100 101 100 99 99 98 98 99 99 97 95 92 86 80 77 75 73 71 70 70 68 67 66 65 63 61 59 58 58 59 59 59 58 57 56 54 52 50 50 48 47 46 43 39 35 28 24 18 12 8 3 2 354 330 319 322 318 295 290 297 305 307 305 302 306
189 186 161 143 127 122 120 115 114 116 114 112 111 111 110 108 108 105 103 102 103 103 102 101 100 99 99 100 97 95 92 88 84 79 76 74 72 71 71 69 67 65 63 61 60 57 57 56 55 55 55 55 54 54 53 52 50 47 46 44 43 42 40 38 35 31 27 21 17 13 4 358 350 338 326 319 309 298 296 292 297 302 299 297 303
191 196 192 173 153 144 140 134 129 125 120 117 116 116 114 113 113 110 106 106 106 105 104 102 101 99 99 98 96 94 90 87 84 81 78 75 73 71 68 65 63 61 58 56 54 52 51 50 49 48 47 46 46 46 45 42 40 37 36 34 33 32 30 28 27 25 22 16 12 8 2 359 353 346 337 326 317 309 300 291 294 300 295 296 304
204 203 197 185 170 163 158 150 142 134 128 125 123 122 121 119 117 114 111 111 110 109 107 105 102 101 100 98 96 94 92 89 86 83 80 76 73 70 67 64 61 58 55 53 50 48 47 44 43 41 38 36 34 32 31 28 26 23 22 20 18 18 16 13 11 9 7 3 360 355 350 348 347 344 338 331 325 314 302 294 297 300 292 291 299
214 208 200 191 178 172 169 161 152 143 137 134 131 129 127 124 122 120 118 117 115 112 110 107 105 104 102 101 98 96 94 91 88 85 82 79 75 73 70 66 63 59 54 50 46 43 40 38 35 31 28 25 21 19 18 15 13 9 7 7 5 2 1 359 357 354 351 347 344 341 337 334 334 336 333 331 328 319 308 300 296 298 295 290 293
212 206 202 196 184 178 175 168 161 153 146 142 138 136 134 130 127 124 121 120 118 114 111 108 109 107 104 101 98 95 94 91 88 85 81 79 76 73 70 66 61 56 50 45 38 33 30 26 22 19 17 14 11 10 7 5 3 359 357 356 354 352 351 350 347 345 343 339 337 333 329 327 327 327 324 323 323 319 315 309 298 283 280 297 306
208 203 199 194 185 181 179 173 168 162 155 149 144 142 140 136 133 128 125 123 119 115 112 110 110 108 104 100 97 94 91 88 85 82 79 75 72 68 63 57 51 45 38 32 25 20 16 13 11 8 6 5 3 1 359 357 355 353 352 350 348 345 343 342 341 339 337 335 332 330 327 324 323 322 319 317 317 314 314 313 304 289 275 275 300
208 203 200 195 186 181 181 177 173 168 161 154 150 147 144 141 139 135 131 127 121 117 114 112 111 108 103 100 95 90 86 83 80 77 74 69 63 57 49 43 38 30 24 18 13 8 5 4 2 0 359 357 357 355 354 352 350 349 349 348 346 343 340 339 338 336 334 332 329 327 326 324 323 321 316 315 314 312 311 309 307 300 285 266 257
210 205 203 196 188 185 182 178 176 170 165 159 155 153 150 147 145 140 135 129 126 123 119 115 111 107 103 98 93 87 83 79 77 73 68 64 59 51 42 35 27 19 12 5 1 357 355 355 354 353 352 351 352 351 349 347 346 345 344 343 343 342 339 338 338 338 336 334 330 327 326 325 325 321 317 316 315 313 312 308 306 302 293 279 266
208 204 201 192 189 189 184 180 177 172 170 167 163 161 158 155 151 146 140 136 133 130 125 119 113 108 104 100 94 89 84 78 75 69 59 54 49 40 30 22 14 6 0 356 352 350 349 349 349 348 347 347 347 347 344 343 342 340 340 339 338 338 336 334 334 334 335 334 332 329 326 326 325 321 318 317 316 315 313 310 306 300 295 289 277
208 199 191 189 190 191 187 185 181 176 178 176 172 170 165 161 159 153 149 146 143 138 133 126 119 114 110 105 98 89 82 74 66 59 48 38 29 20 14 8 2 356 353 351 349 348 348 347 346 345 344 344 344 343 342 340 339 338 338 338 337 335 333 331 330 329 329 330 328 325 324 325 325 321 318 316 314 314 312 309 307 302 295 291 284
207 191 188 191 193 192 190 189 188 186 186 183 179 177 172 168 166 162 159 157 153 149 144 138 132 127 119 111 102 92 84 73 63 54 39 26 12 4 1 357 355 352 350 349 347 347 346 345 344 344 343 343 343 342 341 340 339 338 337 337 336 335 332 330 329 327 326 326 324 321 320 322 323 320 316 315 313 311 309 305 303 301 295 292 288
200 191 195 195 195 195 193 195 196 195 192 188 184 181 178 176 173 171 168 165 163 161 157 153 148 142 134 125 115 103 89 72 59 47 33 22 8 359 354 349 347 346 345 345 344 344 344 343 343 343 342 343 342 341 340 340 339 338 336 335 334 332 331 328 326 325 324 324 321 318 317 318 319 316 313 313 313 311 309 304 300 297 294 292 291
201 194 194 194 195 196 197 200 201 199 196 193 190 187 183 182 180 179 177 175 174 173 171 172 170 166 163 155 146 127 98 63 41 30 19 13 5 356 350 344 342 341 341 342 342 342 343 342 342 342 342 342 341 339 339 339 338 337 334 333 331 329 327 324 322 320 319 319 316 313 313 314 314 311 308 309 310 309 307 304 300 297 293 291 290
210 198 186 188 192 198 202 205 203 200 198 196 196 195 191 189 189 189 187 186 186 185 186 190 191 189 187 181 181 188 192 304 342 355 357 358 356 351 347 342 339 339 339 339 340 341 341 341 341 341 341 340 339 338 338 337 337 336 333 330 329 326 324 321 318 315 314 313 310 308 307 309 309 306 304 304 305 305 303 301 298 296 294 293 290
213 198 183 188 195 204 208 208 205 202 200 200 200 200 199 199 200 200 200 199 199 199 200 203 204 203 203 204 210 220 233 262 299 326 339 345 347 345 342 338 335 335 334 334 335 336 337 337 337 337 337 336 336 336 336 336 335 333 332 330 327 324 320 317 314 312 310 308 305 304 303 304 304 301 300 300 300 299 298 296 294 294 294 293 291
208 188 185 196 204 209 210 209 208 205 204 204 204 204 203 204 205 206 210 211 209 210 210 210 212 213 215 217 220 227 240 260 286 311 327 334 337 337 335 332 331 330 329 330 330 332 333 333 333 333 333 333 333 334 334 334 334 333 331 328 325 322 318 314 312 310 308 307 305 303 302 302 301 299 297 298 298 297 295 292 291 292 292 292 289
198 189 199 205 210 212 210 210 209 207 208 208 208 208 208 208 209 210 213 214 214 214 215 215 217 218 220 222 224 231 242 257 277 300 316 323 327 329 329 328 328 327 327 328 329 329 329 329 330 330 330 330 331 332 332 334 334 332 330 326 322 319 316 314 312 311 310 309 308 306 305 304 302 299 296 295 295 294 293 291 290 290 290 289 287
208 208 213 214 215 211 207 208 209 208 209 210 209 211 210 211 212 213 213 214 213 214 216 218 220 222 223 223 226 233 241 253 273 294 308 316 322 325 326 327 327 327 327 327 328 328 328 327 328 328 328 329 329 330 332 335 334 330 326 323 319 317 315 314 312 312 311 311 311 310 308 306 304 300 297 295 293 292 290 289 289 290 288 286 284
219 221 222 219 217 214 209 208 207 208 209 209 210 211 212 212 213 214 216 216 214 216 219 220 223 225 224 223 226 232 241 255 276 293 305 313 320 323 325 326 326 326 326 326 326 326 326 326 327 326 326 327 328 329 332 334 333 328 324 321 318 315 314 311 310 311 311 312 312 310 307 306 304 301 299 297 295 293 290 288 288 289 288 285 283
228 228 224 221 219 217 214 211 208 209 209 209 211 213 214 215 215 217 219 220 219 221 223 224 226 227 224 223 226 234 245 260 277 291 302 312 318 321 323 323 323 322 322 323 324 324 324 325 325 325 325 325 326 328 332 333 332 329 324 318 314 312 310 308 306 308 309 310 310 307 306 305 304 303 301 298 295 293 291 288 287 286 284 283 283
232 227 218 217 217 214 214 215 213 212 210 211 213 214 214 216 219 222 224 224 224 226 228 228 229 227 223 222 228 237 248 262 276 288 301 311 315 317 318 318 318 318 319 320 321 321 322 323 322 322 322 323 323 326 331 333 332 330 323 314 308 306 305 304 303 304 304 305 305 305 303 302 302 302 300 298 296 294 292 289 288 287 286 283 282
228 222 216 216 217 217 218 219 217 215 216 218 217 215 217 221 224 226 227 226 226 228 230 231 229 224 222 223 231 240 250 262 275 289 300 307 309 311 313 313 314 315 315 316 317 318 319 319 319 319 319 320 322 326 331 334 331 328 322 313 306 303 301 300 300 301 301 300 301 301 300 299 298 298 298 296 294 293 292 290 290 291 290 287 285
227 220 217 217 218 220 221 222 223 223 224 225 223 222 225 228 228 228 228 228 229 230 231 230 226 221 222 227 234 242 252 264 277 290 298 302 305 307 310 310 310 311 312 313 314 315 316 316 316 317 317 317 320 326 331 333 329 325 320 312 306 301 299 297 297 297 297 296 295 297 297 296 295 295 295 294 292 291 291 291 291 292 291 291 290
228 220 218 218 216 217 221 225 229 232 231 230 230 230 231 231 230 231 231 232 233 232 231 228 222 220 224 229 236 243 254 267 280 289 295 299 303 306 308 309 309 310 310 311 312 313 313 313 314 315 315 316 320 327 331 331 328 324 318 311 306 301 298 296 295 294 294 294 292 292 292 292 292 292 292 292 291 291 291 291 291 290 290 289 289
214 211 214 220 219 221 227 231 235 237 235 235 237 236 234 234 234 235 236 236 235 232 229 225 220 221 225 229 236 245 257 270 281 288 294 299 303 306 307 308 309 309 310 311 311 311 311 312 313 315 316 316 319 326 331 329 326 323 317 312 307 303 299 296 294 293 293 292 291 289 290 291 291 291 291 290 290 290 290 289 288 287 286 285 284
212 209 212 218 219 218 219 222 226 228 230 235 239 239 237 237 238 238 238 237 233 230 226 221 218 220 224 230 238 250 263 275 283 289 296 300 304 306 308 309 309 309 310 311 311 311 311 312 313 315 316 316 318 326 330 327 324 321 316 311 307 303 299 295 293 293 293 292 290 288 289 291 291 290 289 289 290 289 288 286 284 284 284 282 281
210 207 207 206 205 202 201 206 211 220 230 238 242 243 242 240 239 238 235 231 228 225 220 216 217 220 225 233 244 256 269 278 285 292 298 302 304 306 307 308 309 309 310 310 310 310 310 311 312 314 316 316 317 324 328 324 322 321 314 308 306 304 300 297 295 294 292 290 288 288 288 288 289 289 289 290 290 290 289 287 285 285 283 279 279
212 204 199 197 197 198 201 206 211 219 229 237 243 245 242 239 238 234 228 224 222 219 216 214 217 222 229 239 251 263 273 281 288 294 298 300 303 305 306 307 307 308 308 308 308 308 307 309 311 312 314 315 317 322 325 323 322 320 311 305 304 302 299 297 295 294 293 291 289 291 291 289 288 290 291 291 291 290 289 286 285 283 279 277 280
211 203 199 201 204 206 206 210 216 223 228 234 238 238 235 236 234 226 222 224 221 217 215 216 220 226 234 246 258 268 277 284 290 295 297 299 303 304 305 306 306 305 305 304 305 306 306 307 310 311 313 315 318 321 324 324 323 318 308 303 302 299 297 297 296 294 292 291 290 292 295 294 292 292 292 291 290 288 285 283 281 279 276 279 283
208 207 208 212 215 214 213 216 222 226 230 233 231 228 228 228 223 220 224 225 221 216 216 218 223 231 240 252 263 271 279 285 289 294 296 298 301 303 302 303 304 304 303 303 304 305 305 306 309 311 313 316 319 321 322 324 324 317 307 302 300 297 296 296 295 293 291 292 293 295 296 296 294 291 291 290 289 288 288 286 282 280 280 283 285
214 217 221 222 221 218 217 221 226 228 231 231 226 224 224 219 217 222 226 222 216 216 218 221 227 236 246 257 267 273 280 285 289 293 295 296 298 299 300 301 302 303 303 303 303 305 306 306 308 311 312 315 319 322 323 324 324 316 305 301 299 297 297 297 295 295 294 294 295 295 294 294 292 289 289 288 287 290 292 290 287 288 289 290 291
219 223 227 224 221 221 222 225 228 228 229 226 222 221 220 217 220 225 222 216 215 218 221 225 233 243 252 261 269 274 280 285 289 292 293 294 297 298 299 301 302 302 302 302 303 305 307 307 309 311 313 315 321 325 325 325 323 314 304 302 300 298 298 297 295 293 293 293 294 294 293 292 289 287 288 289 289 292 294 293 292 295 296 296 297
225 229 230 224 220 223 225 227 229 228 226 223 221 220 219 219 223 224 217 215 218 220 224 232 241 250 259 266 271 276 281 285 288 290 290 293 297 299 299 301 302 302 302 301 302 305 307 307 308 310 312 317 322 326 325 324 321 312 304 304 303 300 300 298 294 293 293 293 293 293 293 292 291 293 295 297 298 299 299 298 297 298 298 298 297
232 236 234 227 225 227 227 227 228 227 223 221 220 220 221 223 225 222 219 219 222 225 231 240 249 257 263 268 272 276 281 284 285 287 289 293 297 298 299 301 302 302 301 300 302 304 304 304 304 307 311 316 322 323 321 320 317 309 305 305 304 302 302 300 296 294 293 294 295 296 297 296 297 298 299 299 299 299 298 298 297 297 297 296 295
235 240 237 230 227 227 226 226 227 225 221 219 219 220 225 229 227 223 222 223 226 231 239 246 255 261 265 269 273 275 278 280 282 285 288 292 295 297 299 300 301 301 299 298 300 301 301 301 301 303 308 313 316 317 317 317 316 311 309 308 307 305 304 301 298 296 297 298 298 297 296 296 296 297 297 296 296 295 296 296 296 295 294 293 292
238 242 239 229 222 221 221 222 224 223 219 217 219 222 226 229 227 223 223 226 229 237 245 252 258 262 266 269 273 275 276 278 282 285 286 288 292 295 297 298 300 301 299 297 297 297 297 298 298 301 305 308 310 313 314 314 314 313 312 311 310 308 307 305 302 300 299 299 298 298 300 301 302 303 301 299 297 296 296 297 296 295 295 294 293
244 243 237 226 220 221 221 222 224 222 218 216 218 221 223 225 224 223 224 228 234 241 248 254 258 262 265 268 271 275 279 282 284 284 285 288 291 293 294 296 299 299 297 296 295 293 292 293 295 298 302 304 305 308 310 311 312 312 312 312 311 309 308 306 304 302 303 304 307 309 310 309 309 309 308 305 303 301 299 298 297 297 297 296 295
248 245 236 229 226 225 224 224 225 222 217 216 217 219 221 222 223 223 225 230 237 244 248 253 257 260 263 266 271 276 281 284 286 286 286 288 290 294 296 297 299 299 298 296 293 290 291 294 295 296 298 300 302 305 308 309 310 311 310 310 310 309 308 306 305 308 311 314 314 314 313 313 315 316 315 312 310 308 306 303 301 300 299 298 297
250 245 238 233 231 229 227 226 225 221 216 215 215 216 218 220 221 224 228 232 237 243 247 250 254 258 261 265 270 275 278 281 283 287 289 289 289 292 295 295 296 297 293 286 283 283 286 290 292 292 293 295 298 303 307 309 310 310 310 310 309 309 309 310 313 317 318 317 316 315 316 318 319 317 314 313 312 312 312 311 309 308 305 303 299
246 238 234 233 230 228 226 224 221 217 214 213 213 214 215 218 221 225 231 235 238 241 246 249 252 255 259 264 268 272 274 277 280 285 289 293 295 295 292 289 291 294 291 282 277 279 284 287 288 290 293 296 298 303 307 310 312 312 313 314 313 314 315 317 320 323 322 319 319 320 318 318 319 317 314 314 314 314 313 312 312 311 310 307 304